Location: Lafig�re
(44.4503°N, 4.0357°E)
Time: 14:18:31
(UTC+00:00)

Vanguard 2 Rocket - Pass Details

Date: 26 January 2021
Orbit: 554 x 3325 km, 32.9° (Epoch: 06 March)

Event Time Altitude Azimuth Distance (km) Brightness Sun altitude
Rises 13:32:35 0° 227° (SW) 7,114 12.6 23.3°
Reaches altitude 10° 13:38:19 10° 221° (SW) 5,832 12.7 22.8°
Maximum altitude 13:52:31 35° 164° (SSE) 3,156 10.5 21.6°
Drops below altitude 10° 14:01:43 10° 103° (ESE) 3,788 9.9 20.8°
Sets 14:04:33 0° 94° (E) 4,441 10.2 20.5°
